CAPE
0 0 0 0 0 0 0 0 0 0 0 0 0 0 0 0 0 0 0 0 0 0 0 0 0 0 0 0 0 0 0 1 0 0 0 0 0 0
0 0 0 0 0 0 0 0 0 0 0 0 0 0 0 0 0 0 0 0 0 0 0 0 0 0 0 0 0 0 0 0 2 0 0 0 0 0
0 0 0 0 0 0 0 0 0 0 0 0 0 0 0 0 0 0 0 0 0 0 0 0 0 0 0 0 0 0 0 0 0 1 4 3 0 4
0 0 0 0 0 0 0 0 0 0 0 0 0 0 0 0 0 0 0 0 0 0 0 0 0 0 0 0 0 0 0 0 0 0 0 11 15 23
0 0 0 0 0 0 0 0 0 0 0 0 0 0 0 0 0 0 0 0 0 0 0 0 0 0 0 0 0 0 0 0 0 0 0 0 0 6
0 0 0 0 0 0 0 0 0 0 0 0 0 0 0 0 0 0 0 0 0 0 0 0 0 0 0 0 0 0 0 0 0 0 0 0 0 0
0 0 0 0 0 0 0 0 0 0 0 0 0 0 0 0 0 0 0 0 0 0 0 0 0 0 0 0 0 0 0 0 0 0 0 0 0 0
0 0 0 0 0 0 0 0 0 0 0 0 0 0 0 0 0 0 0 0 0 0 0 0 0 0 0 0 0 0 0 0 0 0 0 0 0 0
0 0 0 0 0 0 0 0 0 0 0 0 0 0 0 0 0 0 0 0 1 0 0 0 0 0 0 0 0 0 0 0 0 0 0 0 0 0
0 0 0 0 0 0 0 0 0 0 0 0 0 0 0 0 0 0 0 0 0 0 0 0 0 0 0 0 0 0 0 0 0 0 0 0 0 0
0 0 0 0 0 0 0 0 0 0 0 0 0 0 0 0 0 0 1 0 0 0 0 0 0 0 0 0 0 0 0 0 0 0 0 0 0 0
0 0 0 0 1 1 0 0 0 0 0 0 1 1 1 0 0 0 0 0 0 1 0 0 0 0 0 0 0 0 0 0 0 0 0 0 0 0
0 2 0 0 0 0 0 1 2 0 0 0 0 0 0 0 0 0 0 0 0 0 0 0 0 0 0 0 0 0 0 0 0 0 0 0 0 0
0 0 0 0 0 0 0 0 0 0 0 0 0 0 0 0 0 0 0 0 0 0 0 0 1 0 1 0 0 0 0 0 0 0 0 0 0 0
1 1 0 0 0 0 0 0 0 0 0 0 0 0 0 0 0 0 0 0 0 0 0 0 0 0 1 0 0 0 0 0 0 0 0 0 0 0
0 0 0 0 0 0 0 0 0 0 0 0 1 0 0 0 0 0 0 0 1 0 0 0 0 1 1 0 0 0 0 0 0 0 0 0 0 0
4 0 0 0 0 0 0 0 0 0 0 0 0 0 0 1 1 1 1 0 1 1 0 0 1 0 0 0 1 0 0 0 0 0 0 0 0 0
2 2 3 0 0 2 1 1 1 1 2 2 0 0 0 0 0 0 1 1 1 0 1 0 0 0 0 0 0 0 0 0 0 0 1 0 0 0
1 2 2 1 1 1 2 2 1 2 0 0 1 0 0 0 0 0 0 0 0 0 0 0 1 1 0 0 0 0 0 0 0 1 0 0 0 0
0 1 1 1 1 1 1 2 2 1 1 2 1 2 1 1 0 0 0 0 0 0 0 0 1 0 0 0 0 0 0 0 0 0 0 0 0 0
1 1 1 1 1 1 2 2 1 0 1 2 2 2 2 2 3 2 2 5 4 1 1 0 0 1 0 0 0 0 0 0 0 0 0 1 0 0
1 1 2 1 3 3 3 1 0 0 0 1 0 2 4 4 3 3 3 3 3 4 3 3 0 0 0 0 0 0 0 0 0 0 0 0 0 0
0 0 1 2 3 3 2 1 0 0 0 0 1 1 1 1 3 4 4 4 3 4 6 6 5 0 2 0 1 0 0 0 0 0 0 0 0 0
CIN
0 0 0 0 0 0 0 0 0 0 0 0 0 0 0 0 0 0 0 0 0 0 0 0 0 0 0 0 0 0 0 -2 0 0 0 0 0 0
0 0 0 0 0 0 0 0 0 0 0 0 0 0 0 0 0 0 0 0 0 0 0 0 0 0 0 0 0 0 0 0 -3 -1 0 0 0 0
0 0 0 0 0 0 0 0 0 0 0 0 0 0 0 0 0 0 0 0 0 0 0 0 0 0 0 0 0 0 0 0 0 -1 -1 -1 0 -3
0 0 0 0 0 0 0 0 0 0 0 0 0 0 0 0 0 0 0 0 0 0 0 0 0 0 0 0 0 0 0 0 0 0 0 -1 0 0
0 0 0 0 0 0 0 0 0 0 0 0 0 0 0 0 0 0 0 0 0 0 0 0 0 0 0 0 0 0 0 0 0 0 0 0 0 -1
0 0 0 0 0 0 0 0 0 0 0 0 0 0 0 0 0 0 0 0 0 0 0 0 0 0 0 0 0 0 0 0 0 0 0 0 0 0
0 0 -44 0 -89 0 0 0 0 0 0 0 0 0 0 0 0 0 0 0 0 0 0 0 0 0 0 0 0 0 0 0 0 0 0 0 0 0
0 0 0 0 0 0 0 0 0 0 0 0 0 0 0 0 0 0 0 0 -62 0 0 0 0 0 0 0 0 0 0 0 0 0 0 0 0 0
0 0 0 0 0 0 0 0 0 0 0 0 0 0 0 0 0 0 0 0 -78 0 0 0 0 0 0 0 0 0 0 0 0 0 0 0 0 0
0 0 0 0 0 0 0 0 0 0 0 0 0 0 0 0 0 0 0 0 0 0 0 0 0 0 0 0 0 0 0 0 0 0 0 0 0 0
0 0 0 0 0 0 0 0 -4 0 0 0 0 0 0 0 0 0 0 0 0 0 0 0 0 0 0 0 0 0 0 0 0 0 0 0 0 0
0 0 0 0 0 0 0 0 0 0 0 0 0 0 0 0 0 0 0 0 0 -1 0 0 0 0 -2 0 0 0 0 0 0 0 0 0 0 0
0 0 0 0 0 0 0 -9 -7 0 0 0 -33 0 0 0 0 0 0 0 0 0 0 0 0 0 0 0 0 0 0 0 0 0 0 0 0 0
0 0 0 0 0 0 0 0 0 0 0 0 0 0 0 0 0 0 0 0 0 0 0 0 0 0 0 0 0 0 0 0 0 0 0 0 0 0
0 0 0 0 0 0 0 0 0 0 0 0 0 0 0 0 0 0 0 0 0 0 0 0 0 0 0 0 0 0 0 0 0 0 0 0 0 0
0 0 0 0 0 0 0 0 0 0 0 0 0 0 0 0 0 0 0 0 0 0 0 0 0 0 0 0 0 0 0 0 0 0 0 0 0 0
0 0 0 0 0 0 0 0 0 0 0 0 0 0 0 0 0 0 0 0 0 0 0 0 0 0 0 0 0 0 0 0 0 0 0 0 0 0
0 0 0 0 0 0 0 0 0 0 0 0 0 0 0 0 0 0 0 0 0 0 0 0 0 0 0 0 0 0 0 0 0 0 0 0 0 0
0 0 0 0 0 0 0 0 0 0 0 0 0 0 0 0 0 0 0 0 0 0 0 0 0 0 0 0 0 0 0 0 0 0 0 0 0 0
0 0 0 0 0 0 0 0 0 0 0 0 0 0 0 0 0 0 0 0 0 0 0 0 0 0 0 0 0 0 0 0 0 0 0 0 0 0
0 0 0 0 0 0 0 0 0 0 0 0 0 0 0 0 0 0 0 0 0 0 0 0 0 0 0 0 0 0 0 0 0 0 0 0 0 0
0 0 0 0 0 0 0 0 0 0 0 0 0 0 0 0 0 0 0 0 0 0 0 0 -1 0 0 0 0 0 0 0 0 0 0 0 0 0
0 0 0 0 0 0 0 0 0 0 0 0 0 0 0 0 0 0 0 0 0 0 0 0 0 0 0 0 0 0 0 0 0 0 0 0 0 0
Wind_Speed
6 6 4 4 3 3 4 3 5 3 4 3 2 3 3 3 4 3 3 5 6 7 8 8 8 8 8 8 7 6 6 6 5 6 7 7 7 8
4 6 4 3 4 3 3 3 3 4 2 4 4 3 3 3 4 4 4 4 6 7 8 8 7 8 9 9 9 9 8 8 7 8 8 9 9 9
6 7 7 6 4 4 3 2 3 3 4 2 2 2 3 4 3 3 3 4 3 6 7 7 8 8 8 9 9 10 10 10 9 10 11 12 12 11
9 8 8 5 6 5 4 5 4 4 4 5 3 3 4 4 3 3 4 4 4 5 7 7 7 8 7 8 9 9 10 11 11 11 10 11 12 13
11 10 9 8 6 4 5 5 4 3 3 3 4 2 3 1 2 2 3 3 3 6 7 7 7 7 7 8 8 8 9 10 11 12 12 12 12 13
10 10 9 9 8 8 6 6 5 4 4 3 3 2 2 2 1 3 3 2 2 2 4 5 4 6 6 9 8 8 9 10 12 13 13 13 13 13
8 7 7 7 10 9 6 6 6 5 3 4 3 2 2 2 4 2 4 1 2 3 1 2 1 2 3 6 7 9 11 11 13 13 14 14 14 14
10 6 5 5 6 7 9 9 9 7 6 5 4 4 5 4 3 3 3 2 2 3 3 3 1 3 4 4 9 11 11 12 12 13 14 14 14 14
8 8 6 4 5 4 6 5 7 9 7 7 5 6 5 6 5 3 4 3 4 2 3 3 3 4 5 4 9 12 12 11 11 11 12 13 13 13
7 8 7 6 5 4 4 5 6 6 6 5 6 6 5 5 5 5 5 3 1 2 2 3 0 4 4 5 10 13 11 9 9 10 10 11 11 11
5 4 4 5 6 7 5 6 5 5 5 8 9 7 9 9 6 4 3 2 2 3 3 3 2 3 3 6 5 5 8 9 9 9 9 10 10 10
4 9 14 8 3 5 6 5 5 6 5 4 3 4 6 6 9 6 4 3 3 2 3 3 2 2 4 3 3 3 3 7 9 10 10 10 9 4
5 6 6 11 9 7 3 4 4 2 5 5 4 3 3 4 4 4 4 5 3 5 4 3 3 2 2 4 3 2 2 3 3 4 8 10 10 8
6 5 5 8 8 6 3 2 3 3 2 3 3 3 3 3 3 4 5 5 5 6 4 6 3 4 3 2 3 3 3 4 4 3 3 6 9 10
6 7 10 9 6 3 3 2 1 2 1 2 3 3 3 4 2 2 3 4 4 5 5 5 5 4 4 5 3 3 4 3 4 4 3 4 4 3
9 6 7 6 4 3 2 1 0 1 1 1 2 3 2 1 2 2 1 1 1 4 5 6 6 5 3 6 6 7 6 3 3 3 3 3 4 6
8 5 4 4 3 3 2 3 4 4 4 3 4 4 3 2 2 1 1 0 3 2 4 2 4 5 5 6 3 6 8 5 8 8 3 6 7 7
2 2 4 4 3 4 5 5 5 6 5 4 3 2 2 2 2 2 1 2 4 2 3 2 2 2 3 5 14 8 7 8 9 5 3 5 9 10
2 1 2 4 5 5 5 5 3 4 4 3 3 2 2 2 3 2 2 2 2 3 4 3 2 2 5 7 4 19 7 6 4 2 6 7 7 10
5 5 4 4 4 4 4 4 4 4 4 4 4 4 3 3 4 2 2 4 4 3 4 3 3 4 5 5 3 3 17 9 5 7 6 3 7 11
4 4 4 4 4 4 4 4 4 4 5 4 4 4 4 4 4 3 4 7 9 5 6 5 5 10 5 2 4 4 5 18 17 8 3 3 4 2
4 4 5 4 5 5 4 5 4 4 4 3 4 4 4 3 3 4 4 5 5 6 7 6 6 6 4 6 11 11 7 6 9 20 21 14 4 4
4 5 4 4 4 5 5 4 5 5 4 5 4 5 5 5 5 4 5 5 6 7 7 8 7 5 8 9 12 10 12 9 7 8 7 17 24 24
Wind_Direction
180 173 165 175 164 146 140 147 145 168 235 269 222 218 200 179 206 186 213 237 222 232 244 255 256 263 265 266 273 281 286 291 218 222 223 224 240 261
174 179 184 169 171 157 149 150 142 149 188 205 239 228 189 191 206 201 227 234 243 244 243 244 249 252 255 257 261 265 268 270 258 240 236 234 235 245
176 185 192 171 179 173 156 153 161 152 175 270 240 239 202 190 201 225 242 238 249 251 253 249 247 249 255 263 257 254 255 254 255 253 249 245 240 241
185 185 195 181 191 180 171 183 182 185 153 208 216 219 213 215 203 214 239 237 240 245 249 254 248 250 252 261 261 261 255 247 247 247 248 248 244 241
185 189 197 176 190 177 177 182 188 169 179 164 229 194 214 156 217 264 259 268 257 257 265 263 260 252 263 266 269 267 260 256 248 240 240 241 244 246
186 189 189 184 191 188 182 190 187 179 164 179 205 216 200 208 185 210 263 225 279 286 259 265 285 274 267 271 270 259 259 255 253 248 238 235 237 241
167 175 185 183 191 185 175 190 176 184 162 179 176 155 196 184 200 197 219 230 265 227 298 294 293 286 271 269 265 257 258 256 253 248 244 236 234 236
158 156 144 173 193 209 194 181 180 184 193 174 180 186 211 201 183 193 188 209 258 180 165 275 165 276 256 246 252 262 263 256 250 248 247 243 233 233
165 154 147 148 181 200 211 211 207 203 178 180 178 197 195 196 171 189 199 193 216 237 158 250 205 248 261 268 261 271 269 261 254 250 247 246 241 239
146 146 158 171 181 171 181 199 214 210 214 201 193 198 193 167 168 168 185 199 338 277 174 263 263 274 317 282 257 266 278 268 266 260 251 247 242 237
114 121 155 184 197 190 193 207 201 231 224 203 205 187 185 175 161 131 175 164 243 237 188 215 253 258 269 278 288 290 289 276 279 279 273 264 256 243
133 88 60 57 64 145 191 201 216 232 191 183 216 233 201 203 181 185 163 198 195 317 229 183 241 188 307 254 292 289 295 283 275 268 263 268 269 254
75 99 63 48 32 31 209 201 204 169 194 187 182 188 183 197 187 196 189 205 196 232 217 161 207 187 202 289 288 270 217 288 270 277 272 263 257 236
73 58 54 35 30 4 360 104 91 134 142 153 173 193 205 233 217 208 207 210 229 230 211 196 214 186 190 237 251 291 253 254 242 251 260 259 263 253
44 31 16 6 26 18 13 335 78 126 145 175 199 209 203 230 275 227 209 221 236 235 234 207 205 225 196 236 245 259 304 273 235 250 261 249 242 212
14 14 347 355 24 16 342 305 70 122 148 229 233 226 226 169 215 201 196 229 166 273 248 226 232 195 232 241 249 260 251 255 268 228 230 251 240 230
353 356 360 359 8 18 12 19 33 31 61 53 33 11 352 17 299 340 218 243 205 231 262 292 239 235 237 239 259 246 258 248 253 269 180 264 260 246
343 356 359 338 346 42 41 34 30 26 25 24 34 23 7 354 319 325 4 202 236 235 255 278 322 357 335 264 212 245 250 254 267 251 218 239 267 266
35 58 62 36 41 31 32 35 19 24 359 12 19 8 326 315 341 308 307 275 271 243 246 219 211 183 268 266 277 208 231 249 252 250 234 226 254 270
33 33 36 28 37 35 32 23 17 11 358 6 3 352 342 333 324 317 310 298 294 281 271 243 220 231 239 252 236 248 215 246 230 256 258 238 251 276
26 33 27 23 16 22 24 25 17 353 358 352 344 334 330 321 307 303 303 311 309 299 287 273 250 243 247 309 269 250 245 222 236 236 224 234 256 254
25 15 27 18 12 9 18 23 3 352 347 340 338 327 321 315 313 321 319 314 308 300 292 293 288 278 263 254 269 277 273 271 236 241 245 235 201 247
6 5 8 358 7 6 8 2 351 336 343 337 339 336 332 330 321 310 309 309 302 299 299 302 297 279 269 269 270 275 274 266 266 271 256 232 241 249